| time (UTC) | temp F | wind direction | speed MPH | gust MPH | rain 1hr in | rain 24hr in | rain mn in | humidity % | barometer mb |
| 20260507210556 | 84 | 168 | 0.0 | 0.0 | 0.00 | 0.11 | 0.11 | 60 | 1015.7 |
| 20260507210056 | 84 | 108 | 0.0 | 0.0 | 0.00 | 0.11 | 0.11 | 60 | 1015.8 |
| 20260507205555 | 83 | 99 | 0.0 | 0.0 | 0.00 | 0.11 | 0.11 | 60 | 1015.8 |
| 20260507205054 | 83 | 130 | 0.0 | 0.0 | 0.00 | 0.11 | 0.11 | 60 | 1015.7 |
| 20260507204555 | 84 | 117 | 0.0 | 0.0 | 0.00 | 0.11 | 0.11 | 59 | 1015.7 |
| 20260507204056 | 84 | 221 | 0.0 | 0.0 | 0.00 | 0.11 | 0.11 | 59 | 1015.6 |
| 20260507203557 | 84 | 128 | 0.0 | 0.0 | 0.00 | 0.11 | 0.11 | 60 | 1015.7 |
| 20260507203054 | 84 | 136 | 0.0 | 0.0 | 0.00 | 0.11 | 0.11 | 59 | 1015.6 |
| 20260507202554 | 84 | 126 | 0.0 | 0.0 | 0.00 | 0.11 | 0.11 | 59 | 1015.7 |
| 20260507202051 | 84 | 144 | 0.0 | 0.0 | 0.00 | 0.11 | 0.11 | 59 | 1015.7 |
| 20260507201552 | 84 | 148 | 0.0 | 0.0 | 0.00 | 0.11 | 0.11 | 59 | 1015.8 |
| 20260507201151 | 85 | 114 | 0.0 | 0.0 | 0.00 | 0.11 | 0.11 | 58 | 1015.8 |
| 20260507200550 | 85 | 168 | 0.0 | 0.0 | 0.00 | 0.11 | 0.11 | 57 | 1015.8 |
| 20260507200051 | 85 | 154 | 0.0 | 0.0 | 0.00 | 0.11 | 0.11 | 57 | 1015.8 |
| 20260507195549 | 85 | 156 | 0.0 | 0.0 | 0.00 | 0.11 | 0.11 | 58 | 1015.8 |
| 20260507195049 | 85 | 116 | 0.0 | 0.0 | 0.00 | 0.11 | 0.11 | 58 | 1016.0 |
| 20260507194548 | 85 | 146 | 0.0 | 0.0 | 0.00 | 0.11 | 0.11 | 59 | 1016.0 |
| 20260507194047 | 85 | 117 | 0.0 | 0.0 | 0.00 | 0.11 | 0.11 | 61 | 1016.0 |
| 20260507193546 | 85 | 208 | 0.0 | 0.0 | 0.00 | 0.11 | 0.11 | 60 | 1016.1 |
| 20260507193055 | 85 | 179 | 0.0 | 0.0 | 0.00 | 0.11 | 0.11 | 61 | 1016.1 |
| 20260507192546 | 86 | 165 | 0.0 | 0.0 | 0.00 | 0.11 | 0.11 | 61 | 1016.1 |
| 20260507192044 | 85 | 209 | 0.0 | 0.0 | 0.00 | 0.11 | 0.11 | 61 | 1016.1 |
| 20260507191544 | 85 | 82 | 0.0 | 0.0 | 0.00 | 0.11 | 0.11 | 60 | 1016.2 |
| 20260507191042 | 85 | 158 | 0.0 | 0.0 | 0.00 | 0.11 | 0.11 | 61 | 1016.2 |
| 20260507190542 | 85 | 170 | 0.0 | 0.0 | 0.00 | 0.11 | 0.11 | 61 | 1016.2 |
| 20260507190042 | 85 | 207 | 0.0 | 0.0 | 0.00 | 0.11 | 0.11 | 61 | 1016.3 |
| 20260507185541 | 86 | 170 | 0.0 | 0.0 | 0.00 | 0.11 | 0.11 | 62 | 1016.3 |
| 20260507185042 | 86 | 141 | 0.0 | 0.0 | 0.00 | 0.11 | 0.11 | 61 | 1016.2 |
| 20260507184541 | 86 | 152 | 0.0 | 0.0 | 0.00 | 0.11 | 0.11 | 60 | 1016.3 |
| 20260507184040 | 86 | 165 | 0.0 | 0.0 | 0.00 | 0.11 | 0.11 | 60 | 1016.2 |
| 20260507183538 | 86 | 153 | 0.0 | 0.0 | 0.00 | 0.11 | 0.11 | 61 | 1016.4 |
| 20260507183037 | 86 | 158 | 0.0 | 0.0 | 0.00 | 0.11 | 0.11 | 61 | 1016.3 |
| 20260507182537 | 85 | 149 | 0.0 | 0.0 | 0.00 | 0.11 | 0.11 | 62 | 1016.4 |
| 20260507182134 | 85 | 170 | 0.0 | 0.0 | 0.00 | 0.11 | 0.11 | 62 | 1016.6 |
| 20260507181534 | 85 | 143 | 0.0 | 0.0 | 0.00 | 0.11 | 0.11 | 62 | 1016.6 |
| 20260507181031 | 85 | 124 | 0.0 | 0.0 | 0.00 | 0.11 | 0.11 | 63 | 1016.7 |
| 20260507180528 | 84 | 124 | 0.0 | 0.0 | 0.00 | 0.11 | 0.11 | 63 | 1016.8 |
| 20260507180028 | 85 | 191 | 0.0 | 0.0 | 0.00 | 0.11 | 0.11 | 62 | 1017.0 |
| 20260507175527 | 84 | 154 | 0.0 | 0.0 | 0.00 | 0.11 | 0.11 | 63 | 1017.0 |
| 20260507175027 | 84 | 221 | 0.0 | 0.0 | 0.00 | 0.11 | 0.11 | 63 | 1017.1 |
| 20260507174542 | 85 | 197 | 0.0 | 0.0 | 0.00 | 0.11 | 0.11 | 64 | 1017.0 |
| 20260507174024 | 84 | 132 | 0.0 | 0.0 | 0.00 | 0.11 | 0.11 | 64 | 1017.0 |
| 20260507173525 | 83 | 166 | 0.0 | 0.0 | 0.00 | 0.11 | 0.11 | 65 | 1017.0 |
| 20260507173025 | 83 | 124 | 0.0 | 0.0 | 0.00 | 0.11 | 0.11 | 65 | 1017.2 |
| 20260507172521 | 82 | 137 | 0.0 | 0.0 | 0.00 | 0.11 | 0.11 | 65 | 1017.3 |
| 20260507172024 | 82 | 173 | 0.0 | 0.0 | 0.00 | 0.11 | 0.11 | 66 | 1017.4 |
| 20260507171520 | 82 | 103 | 0.0 | 0.0 | 0.00 | 0.11 | 0.11 | 66 | 1017.5 |
| 20260507171020 | 81 | 123 | 0.0 | 0.0 | 0.01 | 0.11 | 0.11 | 66 | 1017.6 |
| 20260507170518 | 81 | 186 | 0.0 | 0.0 | 0.01 | 0.11 | 0.11 | 65 | 1017.7 |
| 20260507170020 | 81 | 237 | 0.0 | 0.0 | 0.01 | 0.11 | 0.11 | 66 | 1017.8 |
| 20260507165524 | 81 | 188 | 0.0 | 0.0 | 0.01 | 0.11 | 0.11 | 66 | 1017.9 |
| 20260507165018 | 81 | 165 | 0.0 | 0.0 | 0.01 | 0.11 | 0.11 | 66 | 1018.0 |
| 20260507164516 | 81 | 139 | 0.0 | 0.0 | 0.01 | 0.11 | 0.11 | 66 | 1018.1 |
| 20260507164015 | 80 | 172 | 0.0 | 0.0 | 0.01 | 0.11 | 0.11 | 67 | 1018.1 |
| 20260507163516 | 80 | 137 | 0.0 | 0.0 | 0.01 | 0.11 | 0.11 | 68 | 1018.2 |
| 20260507163019 | 80 | 105 | 0.0 | 0.0 | 0.01 | 0.11 | 0.11 | 69 | 1018.2 |
| 20260507162514 | 79 | 191 | 0.0 | 0.0 | 0.01 | 0.11 | 0.11 | 69 | 1018.3 |
| 20260507162012 | 79 | 215 | 0.0 | 0.0 | 0.01 | 0.11 | 0.11 | 68 | 1018.5 |
| 20260507161514 | 79 | 173 | 0.0 | 0.0 | 0.00 | 0.10 | 0.10 | 69 | 1018.5 |
| 20260507161013 | 79 | 175 | 0.0 | 0.0 | 0.04 | 0.10 | 0.10 | 68 | 1018.5 |
| 20260507160512 | 79 | 79 | 0.0 | 0.0 | 0.08 | 0.10 | 0.10 | 68 | 1018.6 |
| 20260507160012 | 79 | 66 | 0.0 | 0.0 | 0.09 | 0.10 | 0.10 | 68 | 1018.5 |
| 20260507155511 | 79 | 219 | 0.0 | 0.0 | 0.09 | 0.10 | 0.10 | 68 | 1018.5 |
| 20260507155007 | 78 | 160 | 0.0 | 0.0 | 0.09 | 0.10 | 0.10 | 68 | 1018.6 |
| 20260507154509 | 78 | 146 | 0.0 | 0.0 | 0.09 | 0.10 | 0.10 | 69 | 1018.6 |
| 20260507154007 | 78 | 155 | 0.0 | 0.0 | 0.09 | 0.10 | 0.10 | 69 | 1018.7 |
| 20260507153505 | 78 | 124 | 0.0 | 0.0 | 0.09 | 0.10 | 0.10 | 69 | 1018.7 |
| 20260507153005 | 78 | 203 | 0.0 | 0.0 | 0.09 | 0.10 | 0.10 | 69 | 1018.7 |
| 20260507152504 | 78 | 203 | 0.0 | 0.0 | 0.09 | 0.10 | 0.10 | 69 | 1018.7 |
| 20260507152005 | 78 | 125 | 0.0 | 0.0 | 0.09 | 0.10 | 0.10 | 68 | 1018.8 |
| 20260507151502 | 78 | 203 | 0.0 | 0.0 | 0.08 | 0.09 | 0.09 | 68 | 1018.8 |
| 20260507151003 | 79 | 169 | 0.0 | 0.0 | 0.05 | 0.06 | 0.06 | 67 | 1018.7 |
| 20260507150502 | 79 | 208 | 0.0 | 0.0 | 0.01 | 0.02 | 0.02 | 67 | 1018.7 |
| 20260507150003 | 80 | 172 | 0.0 | 0.0 | 0.00 | 0.01 | 0.01 | 67 | 1018.7 |
| 20260507145603 | 80 | 169 | 0.0 | 0.0 | 0.00 | 0.01 | 0.01 | 66 | 1018.7 |
| 20260507145004 | 80 | 110 | 0.0 | 0.0 | 0.00 | 0.01 | 0.01 | 67 | 1018.6 |
| 20260507144501 | 80 | 111 | 0.0 | 0.0 | 0.00 | 0.01 | 0.01 | 66 | 1018.6 |
| 20260507144100 | 80 | 153 | 0.0 | 0.0 | 0.00 | 0.01 | 0.01 | 66 | 1018.7 |
| 20260507143600 | 81 | 118 | 0.0 | 0.0 | 0.00 | 0.01 | 0.01 | 66 | 1018.7 |
| 20260507143201 | 81 | 161 | 0.0 | 0.0 | 0.00 | 0.01 | 0.01 | 65 | 1018.7 |
| 20260507142659 | 82 | 150 | 0.0 | 0.0 | 0.00 | 0.01 | 0.01 | 66 | 1018.8 |
| 20260507142057 | 80 | 163 | 0.0 | 0.0 | 0.00 | 0.01 | 0.01 | 67 | 1018.8 |
| 20260507141619 | 80 | 137 | 0.0 | 0.0 | 0.00 | 0.01 | 0.01 | 66 | 1018.8 |
| 20260507141054 | 80 | 143 | 0.0 | 0.0 | 0.00 | 0.01 | 0.01 | 67 | 1018.9 |
| 20260507140554 | 80 | 133 | 0.0 | 0.0 | 0.00 | 0.01 | 0.01 | 67 | 1018.8 |
| 20260507140110 | 80 | 140 | 0.0 | 0.0 | 0.00 | 0.01 | 0.01 | 67 | 1018.8 |
| 20260507135552 | 80 | 112 | 0.0 | 0.0 | 0.00 | 0.01 | 0.01 | 67 | 1018.8 |
| 20260507135051 | 80 | 139 | 0.0 | 0.0 | 0.00 | 0.01 | 0.01 | 67 | 1018.7 |
| 20260507134551 | 80 | 109 | 0.0 | 0.0 | 0.00 | 0.01 | 0.01 | 67 | 1018.7 |
| 20260507134051 | 80 | 103 | 0.0 | 0.0 | 0.00 | 0.01 | 0.01 | 67 | 1018.7 |
| 20260507133551 | 81 | 181 | 0.0 | 0.0 | 0.00 | 0.01 | 0.01 | 66 | 1018.6 |
| 20260507133056 | 81 | 192 | 0.0 | 0.0 | 0.00 | 0.01 | 0.01 | 66 | 1018.5 |
| 20260507132548 | 82 | 143 | 0.0 | 0.0 | 0.00 | 0.01 | 0.01 | 65 | 1018.6 |
| 20260507132048 | 82 | 153 | 0.0 | 0.0 | 0.00 | 0.01 | 0.01 | 65 | 1018.5 |
| 20260507131612 | 82 | 172 | 0.0 | 0.0 | 0.00 | 0.01 | 0.01 | 64 | 1018.4 |
| 20260507131047 | 83 | 115 | 0.0 | 0.0 | 0.01 | 0.01 | 0.01 | 64 | 1018.3 |
| 20260507130544 | 82 | 116 | 0.0 | 0.0 | 0.01 | 0.01 | 0.01 | 65 | 1018.3 |
| 20260507130044 | 82 | 140 | 0.0 | 0.0 | 0.01 | 0.01 | 0.01 | 64 | 1018.4 |
| 20260507125543 | 82 | 158 | 0.0 | 0.0 | 0.01 | 0.01 | 0.01 | 64 | 1018.3 |
| 20260507125043 | 82 | 121 | 0.0 | 0.0 | 0.01 | 0.01 | 0.01 | 64 | 1018.4 |
| 20260507124642 | 82 | 139 | 0.0 | 0.0 | 0.01 | 0.01 | 0.01 | 64 | 1018.4 |
| 20260507124039 | 81 | 115 | 0.0 | 0.0 | 0.01 | 0.01 | 0.01 | 65 | 1018.4 |
| 20260507123539 | 80 | 166 | 0.0 | 0.0 | 0.01 | 0.01 | 0.01 | 66 | 1018.3 |
| 20260507123043 | 80 | 98 | 0.0 | 0.0 | 0.01 | 0.01 | 0.01 | 66 | 1018.2 |
| 20260507122536 | 80 | 129 | 0.0 | 0.0 | 0.01 | 0.01 | 0.01 | 65 | 1018.1 |
| 20260507122037 | 81 | 162 | 0.0 | 0.0 | 0.01 | 0.01 | 0.01 | 65 | 1018.0 |
| 20260507121534 | 80 | 124 | 0.0 | 0.0 | 0.01 | 0.01 | 0.01 | 66 | 1018.0 |
| 20260507121033 | 80 | 125 | 0.0 | 0.0 | 0.00 | 0.00 | 0.00 | 66 | 1017.9 |
| 20260507120531 | 80 | 126 | 0.0 | 0.0 | 0.00 | 0.00 | 0.00 | 66 | 1017.9 |
| 20260507120032 | 79 | 120 | 0.0 | 0.0 | 0.00 | 0.00 | 0.00 | 68 | 1017.9 |
| 20260507115527 | 79 | 126 | 0.0 | 0.0 | 0.00 | 0.00 | 0.00 | 68 | 1017.9 |
| 20260507115027 | 79 | 127 | 0.0 | 0.0 | 0.00 | 0.00 | 0.00 | 68 | 1017.9 |
| 20260507114526 | 79 | 127 | 0.0 | 0.0 | 0.00 | 0.00 | 0.00 | 68 | 1017.9 |
| 20260507114026 | 79 | 210 | 0.0 | 0.0 | 0.00 | 0.00 | 0.00 | 68 | 1017.8 |
| 20260507113525 | 79 | 129 | 0.0 | 0.0 | 0.00 | 0.00 | 0.00 | 68 | 1017.7 |
| 20260507113056 | 79 | 151 | 0.0 | 0.0 | 0.00 | 0.00 | 0.00 | 68 | 1017.7 |
| 20260507112525 | 79 | 188 | 0.0 | 0.0 | 0.00 | 0.00 | 0.00 | 68 | 1017.7 |
| 20260507112023 | 79 | 132 | 0.0 | 0.0 | 0.00 | 0.00 | 0.00 | 68 | 1017.7 |
| 20260507111523 | 79 | 160 | 0.0 | 0.0 | 0.00 | 0.00 | 0.00 | 69 | 1017.6 |
| 20260507111018 | 78 | 195 | 0.0 | 0.0 | 0.00 | 0.00 | 0.00 | 70 | 1017.5 |
| 20260507110516 | 78 | 113 | 0.0 | 0.0 | 0.00 | 0.00 | 0.00 | 74 | 1017.7 |
| 20260507110014 | 77 | 125 | 0.0 | 0.0 | 0.00 | 0.00 | 0.00 | 76 | 1017.7 |
| 20260507105513 | 77 | 165 | 0.0 | 0.0 | 0.00 | 0.00 | 0.00 | 77 | 1017.7 |
| 20260507105011 | 76 | 134 | 0.0 | 0.0 | 0.00 | 0.00 | 0.00 | 77 | 1017.6 |
| 20260507104514 | 76 | 139 | 0.0 | 0.0 | 0.00 | 0.00 | 0.00 | 77 | 1017.6 |
| 20260507104010 | 76 | 136 | 0.0 | 0.0 | 0.00 | 0.00 | 0.00 | 77 | 1017.6 |
| 20260507103507 | 0 | 0.0 | 0.0 | 0.00 | 0.00 | 0.00 | 1017.5 | ||
| 20260507103006 | 0 | 0.0 | 0.0 | 0.00 | 0.00 | 0.00 | 1017.5 | ||
| 20260507102503 | 0 | 0.0 | 0.0 | 0.00 | 0.00 | 0.00 | 1017.4 | ||
| 20260507102002 | 0 | 0.0 | 0.0 | 0.00 | 0.00 | 0.00 | 1017.3 | ||
| 20260507101601 | 0 | 0.0 | 0.0 | 0.00 | 0.00 | 0.00 | 1017.2 | ||
| 20260507101101 | 0 | 0.0 | 0.0 | 0.00 | 0.00 | 0.00 | 1017.0 | ||
| 20260507100557 | 0 | 0.0 | 0.0 | 0.00 | 0.00 | 0.00 | 1017.1 | ||
| 20260507100059 | 0 | 0.0 | 0.0 | 0.00 | 0.00 | 0.00 | 1017.0 | ||
| 20260507095554 | 0 | 0.0 | 0.0 | 0.00 | 0.00 | 0.00 | 1017.3 | ||
| 20260507095053 | 0 | 0.0 | 0.0 | 0.00 | 0.00 | 0.00 | 1017.3 | ||
| 20260507094601 | 0 | 0.0 | 0.0 | 0.00 | 0.00 | 0.00 | 1017.2 | ||
| 20260507094051 | 0 | 0.0 | 0.0 | 0.00 | 0.00 | 0.00 | 1017.2 | ||
| 20260507093546 | 0 | 0.0 | 0.0 | 0.00 | 0.00 | 0.00 | 1017.3 | ||
| 20260507093045 | 0 | 0.0 | 0.0 | 0.00 | 0.00 | 0.00 | 1017.4 | ||
| 20260507092544 | 0 | 0.0 | 0.0 | 0.00 | 0.00 | 0.00 | 1017.3 | ||
| 20260507092046 | 0 | 0.0 | 0.0 | 0.00 | 0.00 | 0.00 | 1017.3 | ||
| 20260507091543 | 0 | 0.0 | 0.0 | 0.00 | 0.00 | 0.00 | 1017.3 | ||
| 20260507091041 | 0 | 0.0 | 0.0 | 0.00 | 0.00 | 0.00 | 1017.4 | ||
| 20260507090536 | 0 | 0.0 | 0.0 | 0.00 | 0.00 | 0.00 | 1017.4 | ||
| 20260507090035 | 0 | 0.0 | 0.0 | 0.00 | 0.00 | 0.00 | 1017.4 | ||
| 20260507085533 | 0 | 0.0 | 0.0 | 0.00 | 0.00 | 0.00 | 1017.2 | ||
| 20260507085032 | 0 | 0.0 | 0.0 | 0.00 | 0.00 | 0.00 | 1017.3 | ||
| 20260507084546 | 0 | 0.0 | 0.0 | 0.00 | 0.00 | 0.00 | 1017.3 | ||
| 20260507084028 | 0 | 114 | 0.0 | 0.0 | 0.00 | 0.00 | 0.00 | 1017.4 | |
| 20260507083527 | 0 | 114 | 0.0 | 0.0 | 0.00 | 0.00 | 0.00 | 1017.2 | |
| 20260507083026 | 0 | 108 | 0.0 | 0.0 | 0.00 | 0.00 | 0.00 | 1017.2 | |
| 20260507082524 | 76 | 158 | 0.0 | 0.0 | 0.00 | 0.00 | 0.00 | 72 | 1017.1 |
| 20260507082023 | 76 | 205 | 0.0 | 0.0 | 0.00 | 0.00 | 0.00 | 71 | 1017.1 |
| 20260507081523 | 76 | 176 | 0.0 | 0.0 | 0.00 | 0.00 | 0.00 | 71 | 1017.0 |
| 20260507081024 | 76 | 161 | 0.0 | 0.0 | 0.00 | 0.00 | 0.00 | 71 | 1017.0 |
| 20260507080520 | 76 | 159 | 0.0 | 0.0 | 0.00 | 0.00 | 0.00 | 71 | 1017.0 |
| 20260507080020 | 76 | 169 | 0.0 | 0.0 | 0.00 | 0.00 | 0.00 | 71 | 1017.0 |
| 20260507075519 | 76 | 148 | 0.0 | 0.0 | 0.00 | 0.00 | 0.00 | 71 | 1017.2 |
| 20260507075022 | 76 | 200 | 0.0 | 0.0 | 0.00 | 0.00 | 0.00 | 71 | 1017.2 |
| 20260507074518 | 76 | 115 | 0.0 | 0.0 | 0.00 | 0.00 | 0.00 | 71 | 1017.2 |
| 20260507074015 | 76 | 177 | 0.0 | 0.0 | 0.00 | 0.00 | 0.00 | 71 | 1017.2 |
| 20260507073517 | 76 | 165 | 0.0 | 0.0 | 0.00 | 0.00 | 0.00 | 71 | 1017.2 |
| 20260507073017 | 76 | 172 | 0.0 | 0.0 | 0.00 | 0.00 | 0.00 | 71 | 1017.2 |
| 20260507072514 | 76 | 123 | 0.0 | 0.0 | 0.00 | 0.00 | 0.00 | 71 | 1017.2 |
| 20260507072015 | 76 | 127 | 0.0 | 0.0 | 0.00 | 0.00 | 0.00 | 71 | 1017.2 |
| 20260507071516 | 76 | 210 | 0.0 | 0.0 | 0.00 | 0.00 | 0.00 | 71 | 1017.3 |
| 20260507071011 | 76 | 184 | 0.0 | 0.0 | 0.00 | 0.00 | 0.00 | 71 | 1017.2 |
| 20260507070510 | 76 | 203 | 0.0 | 0.0 | 0.00 | 0.00 | 0.00 | 71 | 1017.4 |
| 20260507070017 | 76 | 136 | 0.0 | 0.0 | 0.00 | 0.00 | 0.00 | 71 | 1017.3 |
| 20260507065507 | 76 | 205 | 0.0 | 0.0 | 0.00 | 0.00 | 0.00 | 71 | 1017.4 |
| 20260507065006 | 76 | 169 | 0.0 | 0.0 | 0.00 | 0.00 | 0.00 | 71 | 1017.4 |
| 20260507064507 | 76 | 122 | 0.0 | 0.0 | 0.00 | 0.00 | 0.00 | 71 | 1017.5 |
| 20260507064005 | 76 | 158 | 0.0 | 0.0 | 0.00 | 0.00 | 0.00 | 70 | 1017.5 |
| 20260507063503 | 76 | 176 | 0.0 | 0.0 | 0.00 | 0.00 | 0.00 | 70 | 1017.5 |
| 20260507063003 | 76 | 139 | 0.0 | 0.0 | 0.00 | 0.00 | 0.00 | 70 | 1017.7 |
| 20260507062504 | 76 | 124 | 0.0 | 0.0 | 0.00 | 0.00 | 0.00 | 70 | 1017.7 |
| 20260507062002 | 76 | 108 | 0.0 | 0.0 | 0.00 | 0.00 | 0.00 | 70 | 1017.8 |
| 20260507061601 | 76 | 172 | 0.0 | 0.0 | 0.00 | 0.00 | 0.00 | 70 | 1017.8 |
| 20260507061059 | 76 | 181 | 0.0 | 0.0 | 0.00 | 0.00 | 0.00 | 70 | 1017.8 |
| 20260507060600 | 76 | 152 | 0.0 | 0.0 | 0.00 | 0.00 | 0.00 | 69 | 1017.9 |
| 20260507060059 | 76 | 143 | 0.0 | 0.0 | 0.00 | 0.00 | 0.00 | 69 | 1017.9 |
| 20260507055555 | 76 | 123 | 0.0 | 0.0 | 0.00 | 0.00 | 0.00 | 69 | 1018.0 |
| 20260507055055 | 76 | 131 | 0.0 | 0.0 | 0.00 | 0.00 | 0.00 | 71 | 1018.1 |
| 20260507054553 | 76 | 102 | 0.0 | 0.0 | 0.00 | 0.00 | 0.00 | 71 | 1018.0 |
| 20260507054055 | 76 | 130 | 0.0 | 0.0 | 0.00 | 0.00 | 0.00 | 72 | 1018.1 |
| 20260507053551 | 76 | 89 | 0.0 | 0.0 | 0.00 | 0.00 | 0.00 | 72 | 1018.3 |
| 20260507053051 | 76 | 185 | 0.0 | 0.0 | 0.00 | 0.00 | 0.00 | 72 | 1018.3 |
| 20260507052548 | 76 | 165 | 0.0 | 0.0 | 0.00 | 0.00 | 0.00 | 72 | 1018.3 |
| 20260507052048 | 76 | 121 | 0.0 | 0.0 | 0.00 | 0.00 | 0.00 | 72 | 1018.5 |
| 20260507051547 | 76 | 182 | 0.0 | 0.0 | 0.00 | 0.00 | 0.00 | 72 | 1018.7 |
| 20260507051046 | 76 | 156 | 0.0 | 0.0 | 0.00 | 0.00 | 0.00 | 72 | 1018.7 |
| 20260507050548 | 76 | 172 | 0.0 | 0.0 | 0.00 | 0.00 | 0.00 | 71 | 1018.8 |
| 20260507045543 | 76 | 101 | 0.0 | 0.0 | 0.00 | 0.00 | 0.00 | 71 | 1019.0 |
| 20260507045041 | 76 | 136 | 0.0 | 0.0 | 0.00 | 0.00 | 0.00 | 71 | 1019.0 |
| 20260507044551 | 76 | 165 | 0.0 | 0.0 | 0.00 | 0.00 | 0.00 | 71 | 1019.1 |
| 20260507044044 | 76 | 188 | 0.0 | 0.0 | 0.00 | 0.00 | 0.00 | 71 | 1019.1 |
| 20260507043539 | 76 | 172 | 0.0 | 0.0 | 0.00 | 0.00 | 0.00 | 71 | 1019.2 |
| 20260507043039 | 77 | 174 | 0.0 | 0.0 | 0.00 | 0.00 | 0.00 | 71 | 1019.2 |
| 20260507042543 | 77 | 153 | 0.0 | 0.0 | 0.00 | 0.00 | 0.00 | 71 | 1019.3 |
| 20260507042039 | 77 | 141 | 0.0 | 0.0 | 0.00 | 0.00 | 0.00 | 71 | 1019.3 |
| 20260507041539 | 77 | 141 | 0.0 | 0.0 | 0.00 | 0.00 | 0.00 | 71 | 1019.4 |
| 20260507041036 | 77 | 127 | 0.0 | 0.0 | 0.00 | 0.00 | 0.00 | 71 | 1019.4 |
| 20260507040535 | 77 | 153 | 0.0 | 0.0 | 0.00 | 0.00 | 0.00 | 71 | 1019.4 |
| 20260507040034 | 77 | 136 | 0.0 | 0.0 | 0.00 | 0.00 | 0.00 | 71 | 1019.4 |
| 20260507035535 | 77 | 110 | 0.0 | 0.0 | 0.00 | 0.00 | 0.00 | 70 | 1019.5 |
| 20260507035034 | 77 | 165 | 0.0 | 0.0 | 0.00 | 0.00 | 0.00 | 70 | 1019.5 |
| 20260507034539 | 77 | 117 | 0.0 | 0.0 | 0.00 | 0.00 | 0.00 | 70 | 1019.5 |
| 20260507034033 | 77 | 124 | 0.0 | 0.0 | 0.00 | 0.00 | 0.00 | 70 | 1019.5 |
| 20260507033532 | 77 | 146 | 0.0 | 0.0 | 0.00 | 0.00 | 0.00 | 70 | 1019.5 |
| 20260507033040 | 77 | 159 | 0.0 | 0.0 | 0.00 | 0.00 | 0.00 | 70 | 1019.6 |
| 20260507032533 | 77 | 108 | 0.0 | 0.0 | 0.00 | 0.00 | 0.00 | 70 | 1019.5 |
| 20260507032032 | 77 | 117 | 0.0 | 0.0 | 0.00 | 0.00 | 0.00 | 70 | 1019.6 |
| 20260507031534 | 77 | 105 | 0.0 | 0.0 | 0.00 | 0.00 | 0.00 | 70 | 1019.6 |
| 20260507031036 | 78 | 132 | 0.0 | 0.0 | 0.00 | 0.00 | 0.00 | 69 | 1019.6 |
| 20260507030532 | 78 | 206 | 0.0 | 0.0 | 0.00 | 0.00 | 0.00 | 69 | 1019.6 |
| 20260507030036 | 78 | 120 | 0.0 | 0.0 | 0.00 | 0.00 | 0.00 | 69 | 1019.6 |
| 20260507025531 | 78 | 149 | 0.0 | 0.0 | 0.00 | 0.00 | 0.00 | 68 | 1019.6 |
| 20260507025032 | 78 | 128 | 0.0 | 0.0 | 0.00 | 0.00 | 0.00 | 68 | 1019.7 |
| 20260507024541 | 78 | 117 | 0.0 | 0.0 | 0.00 | 0.00 | 0.00 | 67 | 1019.6 |
| 20260507024032 | 78 | 128 | 0.0 | 0.0 | 0.00 | 0.00 | 0.00 | 67 | 1019.5 |
| 20260507023530 | 78 | 127 | 0.0 | 0.0 | 0.00 | 0.00 | 0.00 | 67 | 1019.6 |
| 20260507023031 | 78 | 145 | 0.0 | 0.0 | 0.00 | 0.00 | 0.00 | 67 | 1019.6 |
| 20260507022531 | 78 | 113 | 0.0 | 0.0 | 0.00 | 0.00 | 0.00 | 67 | 1019.5 |
| 20260507022031 | 78 | 139 | 0.0 | 0.0 | 0.00 | 0.00 | 0.00 | 67 | 1019.6 |
| 20260507021546 | 78 | 131 | 0.0 | 0.0 | 0.00 | 0.00 | 0.00 | 67 | 1019.6 |
| 20260507021030 | 78 | 151 | 0.0 | 0.0 | 0.00 | 0.00 | 0.00 | 67 | 1019.5 |
| 20260507020530 | 78 | 125 | 0.0 | 0.0 | 0.00 | 0.00 | 0.00 | 67 | 1019.5 |
| 20260507020033 | 78 | 135 | 0.0 | 0.0 | 0.00 | 0.00 | 0.00 | 67 | 1019.5 |
| 20260507015529 | 78 | 105 | 0.0 | 0.0 | 0.00 | 0.00 | 0.00 | 66 | 1019.5 |
| 20260507015029 | 79 | 146 | 0.0 | 0.0 | 0.00 | 0.00 | 0.00 | 66 | 1019.5 |
| 20260507014529 | 78 | 110 | 0.0 | 0.0 | 0.00 | 0.00 | 0.00 | 67 | 1019.4 |
| 20260507014031 | 78 | 123 | 0.0 | 0.0 | 0.00 | 0.00 | 0.00 | 67 | 1019.3 |
| 20260507013529 | 78 | 126 | 0.0 | 0.0 | 0.00 | 0.00 | 0.00 | 67 | 1019.3 |
| 20260507013034 | 78 | 131 | 0.0 | 0.0 | 0.00 | 0.00 | 0.00 | 67 | 1019.3 |
| 20260507012529 | 78 | 121 | 0.0 | 0.0 | 0.00 | 0.00 | 0.00 | 67 | 1019.2 |
| 20260507012028 | 78 | 210 | 0.0 | 0.0 | 0.00 | 0.00 | 0.00 | 67 | 1019.3 |
| 20260507011532 | 78 | 167 | 0.0 | 0.0 | 0.00 | 0.00 | 0.00 | 67 | 1019.2 |
| 20260507011027 | 78 | 123 | 0.0 | 0.0 | 0.00 | 0.00 | 0.00 | 67 | 1019.3 |
| 20260507010527 | 78 | 124 | 0.0 | 0.0 | 0.00 | 0.00 | 0.00 | 67 | 1019.3 |
| 20260507010038 | 78 | 117 | 0.0 | 0.0 | 0.00 | 0.00 | 0.00 | 67 | 1019.2 |
| 20260507005527 | 78 | 120 | 0.0 | 0.0 | 0.00 | 0.00 | 0.00 | 67 | 1019.2 |
| 20260507005030 | 78 | 120 | 0.0 | 0.0 | 0.00 | 0.00 | 0.00 | 67 | 1019.1 |
| 20260507004527 | 78 | 120 | 0.0 | 0.0 | 0.00 | 0.00 | 0.00 | 67 | 1019.1 |
| 20260507004027 | 78 | 115 | 0.0 | 0.0 | 0.00 | 0.00 | 0.00 | 66 | 1019.0 |
| 20260507003527 | 78 | 115 | 0.0 | 0.0 | 0.00 | 0.00 | 0.00 | 66 | 1019.0 |
| 20260507003026 | 78 | 115 | 0.0 | 0.0 | 0.00 | 0.00 | 0.00 | 66 | 1018.8 |
| 20260507002526 | 78 | 115 | 0.0 | 0.0 | 0.00 | 0.00 | 0.00 | 66 | 1018.7 |
| 20260507002026 | 78 | 115 | 0.0 | 0.0 | 0.00 | 0.00 | 0.00 | 65 | 1018.8 |
| 20260507001528 | 78 | 115 | 0.0 | 0.0 | 0.00 | 0.00 | 0.00 | 66 | 1018.7 |
| 20260507001025 | 78 | 115 | 0.0 | 0.0 | 0.00 | 0.00 | 0.00 | 66 | 1018.7 |
| 20260507000525 | 78 | 92 | 0.0 | 0.0 | 0.00 | 0.00 | 0.00 | 66 | 1018.7 |
| 20260507000032 | 78 | 110 | 0.0 | 0.0 | 0.00 | 0.00 | 0.00 | 66 | 1018.6 |
| 20260506235524 | 79 | 117 | 0.0 | 0.0 | 0.00 | 0.00 | 0.00 | 66 | 1018.6 |
| 20260506235025 | 79 | 117 | 0.0 | 0.0 | 0.00 | 0.00 | 0.00 | 66 | 1018.5 |
| 20260506234524 | 79 | 133 | 0.0 | 0.0 | 0.00 | 0.00 | 0.00 | 66 | 1018.4 |
| 20260506234024 | 79 | 124 | 0.0 | 0.0 | 0.00 | 0.00 | 0.00 | 66 | 1018.4 |
| 20260506233524 | 79 | 109 | 0.0 | 0.0 | 0.00 | 0.00 | 0.00 | 66 | 1018.3 |
| 20260506233024 | 79 | 120 | 0.0 | 0.0 | 0.00 | 0.00 | 0.00 | 66 | 1018.2 |
| 20260506232523 | 79 | 116 | 0.0 | 0.0 | 0.00 | 0.00 | 0.00 | 66 | 1018.3 |
| 20260506232024 | 79 | 122 | 0.0 | 0.0 | 0.00 | 0.00 | 0.00 | 66 | 1018.2 |
| 20260506231526 | 79 | 114 | 0.0 | 0.0 | 0.00 | 0.00 | 0.00 | 66 | 1018.0 |
| 20260506231023 | 79 | 120 | 0.0 | 0.0 | 0.00 | 0.00 | 0.00 | 66 | 1018.1 |
| 20260506230523 | 79 | 134 | 0.0 | 0.0 | 0.00 | 0.00 | 0.00 | 66 | 1017.9 |
| 20260506230025 | 79 | 94 | 0.0 | 0.0 | 0.00 | 0.00 | 0.00 | 65 | 1017.9 |
| 20260506225522 | 80 | 135 | 0.0 | 0.0 | 0.00 | 0.00 | 0.00 | 65 | 1017.8 |
| 20260506225022 | 80 | 96 | 0.0 | 0.0 | 0.00 | 0.00 | 0.00 | 65 | 1017.8 |
| 20260506224521 | 80 | 117 | 0.0 | 0.0 | 0.00 | 0.00 | 0.00 | 65 | 1017.7 |
| 20260506224021 | 80 | 149 | 0.0 | 0.0 | 0.00 | 0.00 | 0.00 | 65 | 1017.6 |
| 20260506223521 | 81 | 84 | 0.0 | 0.0 | 0.00 | 0.00 | 0.00 | 64 | 1017.4 |
| 20260506223021 | 81 | 168 | 0.0 | 0.0 | 0.00 | 0.00 | 0.00 | 64 | 1017.4 |
| 20260506222522 | 81 | 96 | 0.0 | 0.0 | 0.00 | 0.00 | 0.00 | 64 | 1017.3 |
| 20260506222021 | 81 | 89 | 0.0 | 0.0 | 0.00 | 0.00 | 0.00 | 64 | 1017.3 |
| 20260506221522 | 82 | 116 | 0.0 | 0.0 | 0.00 | 0.00 | 0.00 | 63 | 1017.3 |
| 20260506221021 | 82 | 135 | 0.0 | 0.0 | 0.00 | 0.00 | 0.00 | 63 | 1017.2 |
| 20260506220521 | 82 | 169 | 0.0 | 0.0 | 0.00 | 0.00 | 0.00 | 63 | 1017.3 |
| 20260506220029 | 82 | 114 | 0.0 | 0.0 | 0.00 | 0.00 | 0.00 | 62 | 1017.3 |
| 20260506215520 | 82 | 146 | 0.0 | 0.0 | 0.00 | 0.00 | 0.00 | 62 | 1017.3 |
| 20260506215020 | 82 | 114 | 0.0 | 0.0 | 0.00 | 0.00 | 0.00 | 62 | 1017.2 |
| 20260506214520 | 83 | 84 | 0.0 | 0.0 | 0.00 | 0.00 | 0.00 | 61 | 1017.2 |
| 20260506214019 | 83 | 110 | 0.0 | 0.0 | 0.00 | 0.00 | 0.00 | 62 | 1017.2 |
| 20260506213519 | 83 | 132 | 0.0 | 0.0 | 0.00 | 0.00 | 0.00 | 62 | 1017.0 |
| 20260506213027 | 83 | 122 | 0.0 | 0.0 | 0.00 | 0.00 | 0.00 | 61 | 1017.0 |
| 20260506212522 | 83 | 75 | 0.0 | 0.0 | 0.00 | 0.00 | 0.00 | 60 | 1017.1 |
| 20260506212022 | 84 | 203 | 0.0 | 0.0 | 0.00 | 0.00 | 0.00 | 60 | 1017.2 |
| 20260506211524 | 84 | 146 | 0.0 | 0.0 | 0.00 | 0.00 | 0.00 | 61 | 1017.1 |
| 20260506211018 | 83 | 151 | 0.0 | 0.0 | 0.00 | 0.00 | 0.00 | 61 | 1017.0 |